星链-6211 (STARLINK-6211 )

导读

STARLINK-6211是美国太空探索技术公司(SpaceX)星链星座的一员,于2023年6月22日发射。星链项目旨在构建全球卫星互联网星座,该卫星运行于近地轨道,主要为全球各地用户提供高速宽带互联网接入服务,满足偏远地区网络覆盖、日常流媒体、在线游戏等多场景上网需求,服役期满后会按计划离轨销毁,避免太空垃圾。

基本信息
目录编号:
57059
目录名称:
STARLINK-6211
国际标识:
2023-088M
轨道中心:
EARTH
卫星名称:
星链-6211
卫星全名:
星链-6211 (STARLINK-6211 )
卫星状态:
在轨 (已飞行1170 天)
发射日期:
2023-06-22 UTC
国别 :
美国 (US)
星等 :
--
轨道信息
数据来源 国际轨道数据 AOE轨道数据
星历时间 2026-09-04T12:13:59+0800
7小时前
查看轨道信息
2026-09-03T23:00:00+0800
20小时前
查看轨道信息
半长轴 6861.245km 6861.214km
偏心率 0.0000747 0.000222
轨道倾角 43.001° 43.003°
近地点辐角 237.239° 220.809°
升交点赤经 182.310° 185.426°
平近点角 122.839° 343.641°
近地点 482.595km 481.553km
远地点 483.621km 484.601km
周期 94.268分钟 94.267分钟
每日圈数 15.275605 15.275708
详细信息
固有亮度:
5
最大亮度:
2.4
卫星平台:
Starlink v1.5
覆盖范围:
全球
运营商:
太空探索技术公司
运营商所在国:
美国
制造商(研发单位):
太空探索技术公司
制造商所在国:
美国
使用方式:
暂无
卫星简介
星链(Starlink)计划是由太空探索技术公司(SpaceX)提出的一个巨型低轨卫星互联网星座项目,计划在2019年至2024年间在太空搭建由约1.2万颗卫星组成的“星链”网络,其中1584颗将部署在地球上空550千米处的近地轨道,并从2020年开始工作。该卫星仍在工作。
2D轨道图
3D轨道图
轨道高度分析图
轨道倾角分析图
轨道综合分析图
查看轨道综合分析图
交会数据列表
事件ID 空间交会对象 最接近时刻(TCA) 交会距离 交会风险概率(CRP) 交会风险指数(CRI) 操作
CDM_260904-152605-705906-248021
2026-09-04T
15:26:32+0000
0.367 km
远距离
2.688023E-4 高风险 0.84
CDM_260906-143305-705906-703021
2026-09-06T
14:33:59+0000
0.593 km
远距离
7.73215E-5 中风险 0.73
CDM_260906-142305-705906-358821
2026-09-06T
14:23:17+0000
0.702 km
远距离
6.54204E-5 中风险 0.71
CDM_260905-075505-705906-248021
2026-09-05T
07:55:09+0000
1.005 km
极远距离
1.670556E-5 中风险 0.59
CDM_260906-124905-705906-358821
2026-09-06T
12:49:08+0000
1.085 km
极远距离
1.550847E-5 中风险 0.59
CDM_260904-132005-323205-705921
2026-09-04T
13:20:31+0000
1.701 km
极远距离
4.131907E-6 低风险 0.47
CDM_260904-045404-394605-705924
2026-09-04T
04:54:38+0000
1.803 km
极远距离
3.703197E-6 低风险 0.46
CDM_260906-125905-705906-703021
2026-09-06T
12:59:50+0000
1.545 km
极远距离
3.379117E-6 低风险 0.46
CDM_260904-135205-705906-248021
2026-09-04T
13:52:23+0000
1.664 km
极远距离
3.118126E-6 低风险 0.45
CDM_260905-062105-705906-248021
2026-09-05T
06:21:00+0000
1.759 km
极远距离
2.65242E-6 低风险 0.43